Location: Bieg
(49.3499°N, 10.3835°E)
Time: 01:56:23
(UTC+00:00)

SL-27 R/B - Pass Details

Date: 23 May 2024
Orbit: 330 x 354 km, 74.7° (Epoch: 12 June)

Event Time Altitude Azimuth Distance (km) Brightness Sun altitude
Exits shadow 01:08:46 11° 132° (SE) 1,197 4.4 -15.6°
Maximum altitude 01:10:05 15° 101° (E) 1,043 4.4 -15.5°
Drops below altitude 10° 01:11:43 10° 65° (ENE) 1,271 5.5 -15.4°
Sets 01:14:14 0° 39° (NE) 2,113 7.6 -15.2°
